Flag for Norway Weather past 2 weeks in Stavanger, Norway

Now
66 °F

Partly cloudy.


Feels Like: 66 °F
Forecast: 55 / 66 °F
Wind: 1 mph from North

Location: Stavanger / Sola

Current Time: Jul 12, 2014 at 5:38:53 AM

Latest Report: Jul 12, 2014 at 4:50 AM


Visibility: N/A

Pressure: 30.04 "Hg

Humidity: 83%

Dew point: 61 °F

Location of StavangerLocation

Historic Weather in Stavanger — Graph

°F

Stavanger temperature yesterday

Maximum temperature yesterday: 81 °F (at 10:50 AM)
Minimum temperature yesterday: 59 °F (at 4:50 AM)
Average temperature yesterday: 72 °F

Past Weeks' High & Low Weather Summary

 TemperatureHumidityPressure
High84 °F (Jul 10, 1:20 PM)100% (Jun 29, 3:50 AM)30.09 "Hg (Jun 29, 3:50 AM)
Low46 °F (Jun 28, 5:20 AM)37% (Jul 10, 11:50 AM)29.53 "Hg (Jul 5, 11:50 AM)
Average61 °F76%29.91 "Hg
* Reported Jun 27 3:50 AM — Jul 12 3:50 AM, Stavanger, Weather by CustomWeather, © 2014

Note: Actual official high and low records may vary slightly from our data, if they occured in-between our weather recording intervals... More about our weather records

Advertising

Stavanger weather history for previous 24 hours

 ConditionsComfort  
Time TempWeatherWind HumidityBarometerVisibility
3:50 AM
Jul 12
66 °FPassing clouds.2 mph83%30.04 "Hg6 mi
2:50 AM66 °FPassing clouds.1 mph83%30.04 "HgN/A
1:50 AM68 °FPassing clouds.2 mph78%30.07 "HgN/A
1:20 AM68 °FPassing clouds.1 mph78%30.07 "HgN/A
12:50 AM68 °FPassing clouds.2 mph78%30.07 "HgN/A
12:20 AM68 °FPassing clouds.1 mph83%30.07 "HgN/A
11:50 PM
Jul 11
68 °FPassing clouds.1 mph83%30.07 "HgN/A
11:20 PM68 °FPartly sunny.No wind78%30.07 "HgN/A
10:50 PM68 °FPartly sunny.2 mph78%30.07 "HgN/A
10:20 PM70 °FPartly sunny.1 mph73%30.07 "HgN/A
9:50 PM68 °FPartly sunny.1 mph78%30.07 "HgN/A
9:20 PM68 °FScattered showers. Partly sunny.2 mph78%30.07 "HgN/A
8:50 PM68 °FPartly sunny.5 mph78%30.07 "HgN/A
8:20 PM70 °FScattered showers. Broken clouds.12 mph78%30.07 "HgN/A
7:50 PM72 °FPartly sunny.6 mph73%30.07 "HgN/A
7:20 PM75 °FScattered clouds.6 mph65%30.07 "HgN/A
6:50 PM75 °FScattered clouds.6 mph65%30.07 "HgN/A
6:20 PM75 °FScattered clouds.8 mph65%30.07 "HgN/A
5:50 PM75 °FPassing clouds.9 mph69%30.07 "HgN/A
5:20 PM77 °FScattered clouds.12 mph57%30.07 "HgN/A
4:50 PM77 °FScattered clouds.12 mph57%30.07 "HgN/A
4:20 PM77 °FScattered clouds.14 mph54%30.07 "HgN/A
3:50 PM79 °FScattered clouds.10 mph54%30.07 "HgN/A
3:20 PM79 °FScattered clouds.12 mph54%30.07 "HgN/A
2:50 PM79 °FBroken clouds.13 mph51%30.07 "HgN/A
2:20 PM81 °FSunny.13 mph51%30.07 "Hg10 mi
1:50 PM79 °FSunny.13 mph51%30.07 "Hg10 mi
1:20 PM75 °FPassing clouds.9 mph57%30.09 "HgN/A
12:50 PM79 °FPassing clouds.9 mph51%30.07 "HgN/A
12:20 PM79 °FSunny.8 mph51%30.07 "Hg10 mi
11:50 AM81 °FSunny.6 mph45%30.07 "Hg10 mi
11:20 AM81 °FSunny.3 mph42%30.09 "Hg10 mi
10:50 AM81 °FSunny.5 mph42%30.09 "Hg10 mi
10:20 AM79 °FSunny.3 mph54%30.09 "Hg10 mi
9:50 AM77 °FSunny.2 mph54%30.09 "Hg10 mi
9:20 AM73 °FSunny.2 mph65%30.09 "Hg10 mi
8:50 AM75 °FSunny.2 mph57%30.09 "Hg10 mi
8:20 AM72 °FSunny.2 mph69%30.09 "Hg10 mi
7:50 AM68 °FSunny.1 mph73%30.09 "Hg10 mi
7:20 AM64 °FSunny.No wind78%30.09 "Hg10 mi
6:50 AM64 °FSunny.1 mph78%30.09 "Hg10 mi
6:20 AM61 °FSunny.No wind83%30.07 "Hg10 mi
5:50 AM61 °FSunny.No wind83%30.07 "Hg10 mi
5:20 AM59 °FClear.No wind88%30.07 "Hg10 mi
Weather by CustomWeather, © 2014

See weather overviewHow to use our weather pages